Location: Novokuznetsk
(53.7500°N, 87.1000°E)
Time: 04:50:56
(UTC+06:00)

ISS - Pass Details

Date: 22 July 2018
Orbit: 402 x 408 km, 51.6° (Epoch: 16 July)

Event Time Altitude Azimuth Distance (km) Brightness Sun altitude
Rises 23:00:23 0° 257° (WSW) 2,322 0.1 -14.2°
Reaches altitude 10° 23:02:28 10° 253° (WSW) 1,463 -1.0 -14.3°
Maximum altitude 23:05:42 57° 174° (S) 482 -3.8 -14.4°
Drops below altitude 10° 23:08:56 10° 95° (E) 1,468 -1.2 -14.6°
Sets 23:11:03 0° 91° (E) 2,329 -0.1 -14.7°
Enters shadow 23:11:04 - 91° (E) 2,337 -0.1 -14.7°
